Theta_e
328 321 312 310 314 311 308 304 294 291 296 291 291 293 294 298 301 298 298 298 298 314 323 329 327 326 318 320 325 328 328 320 320 304 304 331 347 348 350 352 353 352 352 353 354 353 353 354 354 354 353 353 353 351 351 350 350 349 349 349 349 350 351 352 352 352 353 353 353 353 353 353 352 352 352 352 353 352 352 352 352 352 351 351 350 351 350 350 350 350 350 350 350 349 349 349 348
323 318 306 313 316 308 304 299 290 293 289 288 292 294 295 296 297 296 297 300 300 321 328 330 330 331 331 330 331 331 329 331 333 330 336 344 347 348 351 353 352 350 352 353 353 352 351 353 354 354 354 354 352 351 350 351 350 350 350 349 350 351 352 352 353 353 353 352 353 353 353 353 353 353 353 353 352 352 353 352 352 352 352 351 351 350 350 350 350 350 350 350 350 350 348 348 347
320 310 304 308 306 305 301 300 295 288 289 285 290 293 295 295 295 297 299 301 319 327 330 328 328 328 328 328 324 324 320 336 336 337 336 344 340 344 350 352 352 352 352 352 352 351 351 352 354 353 353 353 352 351 351 350 350 350 350 350 350 351 351 352 352 353 353 353 353 353 353 353 353 353 353 353 353 352 352 352 352 352 351 351 351 350 350 349 349 349 348 348 348 348 347 346 344
310 312 309 303 303 298 296 292 289 289 287 287 288 293 293 295 297 298 301 308 325 326 324 322 323 328 328 324 327 333 330 331 337 337 335 339 341 347 350 352 353 352 352 351 351 350 350 353 354 352 353 353 352 351 351 351 351 349 349 349 350 350 351 352 352 353 353 352 353 353 353 353 352 352 352 352 352 351 351 352 351 351 351 350 350 350 349 348 347 347 347 347 346 346 345 344 343
309 311 310 302 299 300 296 293 289 289 290 288 286 290 295 294 296 306 315 319 323 322 324 325 324 330 331 328 329 325 329 336 337 340 339 342 348 349 350 351 351 351 350 351 351 350 350 354 353 353 352 352 352 351 351 351 350 349 349 349 350 350 351 351 352 352 352 352 352 352 352 352 352 352 352 351 351 350 350 350 350 350 349 348 347 346 346 345 345 345 344 344 344 344 343 342 342
304 303 308 304 301 300 296 292 290 290 295 292 291 292 292 294 298 303 319 321 323 324 324 325 324 324 328 330 333 329 336 328 336 337 340 341 347 349 350 351 350 349 350 351 350 350 351 354 353 353 352 352 352 352 351 350 350 349 349 349 349 350 351 351 351 352 352 352 352 352 352 352 352 351 350 350 350 350 349 349 349 348 348 348 348 347 345 344 344 344 343 343 343 343 342 342 341
305 302 300 302 299 297 289 285 287 288 294 294 292 295 299 298 299 302 320 320 324 326 328 328 332 330 325 330 335 337 341 340 336 337 341 344 347 349 350 349 349 348 350 350 350 350 351 352 352 352 352 352 352 351 351 350 349 349 349 349 349 349 350 351 351 352 352 352 352 352 352 352 351 350 350 350 350 349 349 348 347 347 347 346 346 347 345 344 343 344 343 343 343 342 341 341 342
311 302 300 293 292 292 290 286 289 289 291 296 297 298 300 300 299 301 310 318 317 319 327 330 332 329 326 336 326 337 340 341 340 342 343 345 347 348 349 348 347 347 349 350 350 350 353 352 352 352 352 352 352 350 350 350 349 349 349 349 349 349 350 351 351 352 352 351 352 351 352 352 351 350 350 349 349 349 349 349 348 347 347 346 346 345 343 342 343 343 344 344 343 342 342 342 342
304 302 302 295 292 290 287 287 288 290 292 295 297 299 308 302 301 300 300 307 323 327 328 328 328 325 327 329 328 334 336 341 342 344 344 345 345 347 347 347 346 346 348 349 349 350 350 352 352 352 352 351 350 350 350 349 349 349 348 348 349 349 349 350 351 351 352 352 352 351 352 351 351 350 349 349 348 348 348 348 347 347 346 346 345 344 343 343 343 343 344 344 343 343 342 342 341
302 302 296 292 289 290 286 288 289 291 291 293 295 298 299 299 299 299 298 310 322 326 329 332 332 327 329 325 328 332 333 340 341 341 343 344 345 346 346 347 347 346 347 348 348 348 348 352 352 351 351 351 350 349 349 349 348 348 348 348 348 349 348 349 350 351 352 352 352 351 351 351 350 350 349 348 348 347 347 347 346 347 346 346 345 346 346 345 344 344 343 344 343 342 342 342 342
297 296 296 293 288 286 287 285 287 292 294 297 297 300 301 301 299 297 301 320 326 326 329 332 328 327 329 328 331 341 339 340 339 338 343 344 345 345 345 346 347 348 347 347 347 347 349 350 352 351 350 350 350 349 349 348 348 348 348 349 349 348 349 349 349 350 350 351 351 351 350 350 350 349 349 349 348 347 346 346 347 346 346 346 346 345 344 344 343 343 343 343 342 342 341 342 342
297 293 293 284 285 285 284 285 288 291 293 294 296 299 299 299 299 302 319 321 324 327 327 329 326 332 326 327 329 337 338 338 338 341 343 344 343 345 345 346 346 347 347 347 348 347 348 349 349 351 350 350 349 349 348 348 348 348 348 348 348 349 349 349 349 349 350 350 350 350 350 350 349 349 349 348 347 346 346 346 345 346 346 346 346 346 343 343 343 342 342 342 341 341 341 342 341
295 291 286 286 283 286 287 288 288 294 293 293 295 298 299 298 297 313 321 324 325 323 323 329 333 332 323 326 334 337 335 338 341 342 343 343 344 345 346 346 347 347 347 348 346 346 346 346 347 348 349 350 349 348 348 348 348 348 348 348 348 348 348 348 349 349 349 349 350 350 349 349 349 349 348 348 347 346 346 345 345 345 345 346 346 345 343 342 342 342 341 342 341 341 341 341 340
298 293 290 288 286 285 288 288 288 289 288 293 296 299 299 298 297 320 324 322 322 322 329 335 333 332 326 330 330 331 334 340 340 341 342 343 344 345 345 346 346 346 346 346 345 345 344 345 346 346 346 345 344 348 348 348 347 348 348 347 347 347 347 348 348 349 349 349 349 349 349 349 349 349 348 348 347 347 346 345 345 345 345 345 345 345 343 342 341 341 341 341 341 341 341 340 340
301 294 291 289 287 288 286 289 287 288 291 295 296 298 310 315 309 324 324 322 323 331 334 337 334 329 322 327 325 331 335 339 340 341 341 342 343 344 344 344 344 345 345 345 345 344 343 344 344 344 344 343 341 341 340 346 347 347 347 346 347 346 346 348 348 348 349 349 349 348 349 349 349 348 348 347 347 346 346 346 345 345 345 345 345 344 344 342 342 341 341 341 340 340 341 340 341
299 293 289 289 284 286 287 288 289 290 291 293 298 297 321 325 324 323 323 328 327 333 334 328 334 324 331 330 331 335 338 339 340 340 340 340 341 341 342 342 342 343 343 344 343 343 343 343 342 342 342 341 340 339 340 340 346 346 346 346 346 346 347 348 348 348 348 348 348 348 348 346 346 345 348 345 347 346 346 343 344 345 345 345 345 345 343 342 341 341 341 340 340 340 340 341 342
296 296 289 285 285 286 286 289 289 287 290 294 298 304 318 320 328 329 332 332 327 327 330 332 330 336 332 333 336 337 338 339 340 338 338 337 337 337 338 339 339 339 340 340 340 341 341 341 341 341 341 341 340 339 339 341 345 346 345 347 347 348 348 348 347 347 347 347 347 345 343 339 336 338 338 341 346 341 346 346 345 344 344 345 345 344 342 343 342 341 340 340 340 340 340 341 340
297 291 286 284 283 287 288 292 291 293 295 296 297 298 315 321 325 328 333 330 330 329 328 330 332 332 335 336 338 338 338 337 336 335 335 334 335 334 334 336 337 335 336 336 338 340 340 340 340 340 341 341 341 343 343 342 344 346 340 339 341 345 347 348 345 343 348 341 344 339 337 340 335 334 335 346 338 342 343 346 345 345 344 345 345 344 344 342 342 341 340 340 340 340 341 328 330
295 288 287 287 285 290 292 293 295 295 295 296 297 298 301 322 325 325 325 325 326 326 327 329 327 331 334 335 335 335 335 334 334 334 333 332 333 332 332 333 334 335 334 335 336 337 337 339 339 340 339 340 340 341 343 343 342 340 338 339 343 346 345 346 342 343 341 341 338 335 336 333 334 333 335 341 341 345 343 345 345 344 345 345 345 345 344 344 343 341 341 341 341 339 328 324 325
294 292 287 287 290 291 294 296 297 297 297 296 297 298 311 323 323 328 324 324 326 324 323 326 326 326 329 332 333 334 333 332 333 333 333 333 333 332 332 332 333 335 334 333 334 336 336 337 338 338 339 339 340 339 341 341 339 337 338 339 340 340 338 339 336 336 338 340 338 333 333 336 335 330 346 347 346 338 338 345 345 345 344 344 345 344 344 344 344 343 342 342 335 332 327 324 326
293 293 289 290 291 293 296 297 297 297 298 297 298 297 309 306 323 327 326 323 324 326 329 327 326 328 329 331 332 332 331 331 331 332 332 332 333 333 333 333 333 335 334 334 335 335 335 336 337 337 338 338 338 340 342 340 337 337 337 335 336 334 334 333 332 333 334 335 334 333 332 337 332 331 331 333 334 334 334 332 333 333 332 333 342 330 331 335 333 329 327 331 328 329 327 326 326
294 291 291 292 292 294 298 297 298 298 298 297 297 297 298 310 327 327 325 319 320 326 330 331 331 331 330 330 331 332 330 329 329 330 331 331 331 332 334 335 337 337 336 334 334 335 336 338 337 337 338 336 337 338 340 342 340 336 334 334 334 331 332 332 331 332 332 333 333 334 336 334 333 331 330 330 332 331 334 332 331 330 329 331 338 332 330 330 331 330 329 331 330 327 326 327 325
292 291 292 293 295 295 297 299 299 299 298 297 297 299 302 324 323 319 324 323 327 333 333 333 332 333 333 333 332 330 328 327 328 329 331 330 331 332 333 335 335 335 336 335 336 337 338 338 338 338 337 337 337 339 339 339 336 335 334 334 333 331 331 330 330 330 331 332 332 336 332 333 334 330 329 331 332 332 332 330 330 329 328 329 335 331 330 330 332 332 328 328 327 328 329 327 326
294 290 291 295 295 295 298 298 298 296 296 298 299 304 316 320 315 324 327 330 333 334 335 334 335 335 334 331 331 329 328 327 327 330 331 331 332 332 334 334 336 338 337 337 339 340 339 338 339 339 338 337 335 337 336 335 333 334 335 341 334 338 334 330 330 330 332 332 334 334 337 332 334 331 330 330 333 331 332 331 328 329 327 328 329 331 330 330 331 331 330 329 329 329 329 329 327
293 292 294 295 296 296 297 297 296 296 295 297 309 314 314 319 322 328 326 331 334 335 336 335 334 333 332 331 329 328 328 328 329 330 332 333 333 334 335 335 336 338 336 337 339 339 337 338 338 338 338 337 336 337 336 333 333 334 335 333 331 342 330 329 331 332 332 333 335 334 336 332 334 331 329 331 332 330 330 332 330 329 328 328 327 328 330 329 330 330 329 329 329 328 328 329 329
293 296 296 296 296 297 297 296 296 296 299 311 321 321 325 327 328 322 327 332 334 334 332 332 331 330 329 328 328 328 328 329 330 330 331 333 333 333 333 334 336 336 337 338 338 337 335 337 337 337 337 337 337 336 335 334 332 334 333 332 331 339 330 332 334 333 332 332 332 334 335 333 333 333 330 330 332 331 329 329 330 330 330 328 328 326 327 328 328 328 328 328 329 328 328 329 329
293 294 294 295 297 296 297 296 297 297 298 301 319 321 323 323 324 315 319 328 332 331 330 330 329 328 328 329 329 329 329 329 330 331 331 332 332 332 333 334 335 336 338 337 336 335 336 337 337 337 337 341 336 335 333 332 333 331 333 332 331 335 333 336 337 335 334 333 332 332 334 334 332 331 331 331 331 330 329 328 329 328 330 329 328 327 326 328 328 328 327 327 327 328 329 329 330
295 295 294 293 294 295 296 295 296 297 299 310 322 319 309 312 322 318 321 324 331 328 328 328 328 328 328 329 329 330 330 331 332 331 329 330 331 332 332 333 333 334 336 337 337 337 336 335 336 336 335 336 335 333 335 333 333 333 333 331 331 332 334 335 337 336 338 336 334 332 333 334 334 332 332 332 331 331 330 329 328 327 330 329 329 328 327 328 328 328 329 330 329 329 330 328 328
295 295 291 291 293 294 294 295 297 297 298 304 316 297 292 309 316 320 323 326 328 327 327 327 327 327 328 329 329 329 330 331 332 331 332 332 333 334 333 333 333 334 335 337 338 337 334 334 336 335 334 335 333 333 333 332 332 334 333 331 332 336 333 335 335 336 336 337 337 334 332 334 336 334 333 333 335 331 330 329 328 330 330 330 329 330 330 329 328 328 327 329 329 328 327 327 329
295 294 290 290 290 288 294 294 296 297 298 299 301 288 287 304 312 316 321 326 325 326 325 326 326 327 327 328 328 329 330 330 330 331 332 333 333 334 333 333 334 333 335 336 337 337 337 336 337 336 334 333 333 333 333 332 332 332 333 331 335 334 332 333 334 333 334 335 336 337 335 334 335 334 334 333 332 331 330 329 328 329 329 329 329 329 328 327 328 327 326 326 332 331 329 328 326
289 290 292 285 287 286 291 294 295 296 296 295 296 286 289 302 314 319 324 326 326 324 326 326 326 326 327 327 328 328 329 330 330 332 333 334 333 332 331 332 333 334 335 335 335 337 338 337 338 335 335 333 336 334 335 332 333 334 333 333 333 334 333 332 331 332 332 333 334 335 335 334 335 335 334 333 332 332 331 329 328 330 329 328 328 328 328 329 328 328 326 327 327 327 327 329 327
289 287 282 284 285 284 289 292 295 295 297 295 293 288 295 308 315 321 324 324 326 324 326 326 326 326 326 327 327 327 329 331 331 332 332 332 332 331 332 332 334 334 334 334 335 336 336 335 337 334 334 334 333 334 333 331 332 332 333 339 334 336 337 335 333 334 335 334 336 337 337 336 336 336 335 334 333 334 334 332 330 329 329 328 327 327 328 328 327 328 327 327 325 326 327 328 325
284 286 282 286 286 286 289 295 293 296 294 294 294 287 300 308 315 321 323 322 323 323 324 326 326 326 326 327 327 327 328 330 331 332 331 330 330 331 332 333 334 334 335 335 335 334 334 335 336 333 333 333 332 332 331 332 335 336 334 331 334 336 336 335 333 331 332 334 336 338 338 338 339 338 336 335 334 333 333 333 330 329 330 329 328 327 326 327 326 328 328 327 327 325 327 328 327
281 283 284 284 285 285 286 289 292 293 293 292 299 298 300 308 313 317 323 323 324 323 324 325 325 325 326 326 326 327 327 328 329 331 333 333 334 335 336 338 336 336 337 335 335 335 335 335 336 336 334 334 332 331 331 332 334 334 332 331 334 332 333 335 333 332 331 331 332 334 336 338 339 337 336 335 334 335 333 332 329 329 330 328 327 326 326 326 326 325 327 325 327 326 326 326 326
280 284 285 286 287 287 287 288 291 293 297 299 301 298 301 310 315 320 324 327 324 323 324 324 325 325 325 326 326 327 328 328 329 331 332 332 332 333 334 336 336 337 337 337 334 333 332 333 335 334 332 332 333 332 332 330 331 331 330 329 329 329 330 330 330 330 330 329 330 331 332 334 335 334 334 334 336 336 336 335 334 332 331 330 329 327 325 326 326 325 326 327 327 328 327 326 326
285 284 284 283 285 286 286 289 293 297 297 301 301 301 307 312 315 313 315 325 322 322 325 325 325 325 325 324 324 324 324 324 327 328 329 330 330 330 331 331 332 332 332 334 333 331 330 330 331 331 332 332 332 330 328 327 328 328 326 326 326 326 327 329 329 329 330 330 330 330 330 331 330 333 334 336 337 337 336 336 335 333 332 332 331 330 328 327 327 326 326 326 326 327 328 328 325
287 287 287 287 286 286 288 290 298 306 304 303 303 308 310 312 311 311 312 316 320 322 321 322 322 321 321 320 320 321 322 322 325 326 327 328 328 328 329 329 329 330 330 331 331 333 334 334 334 333 334 334 333 330 328 326 325 325 325 324 323 323 325 327 328 328 329 330 331 330 330 330 330 331 333 332 331 335 336 334 334 333 332 334 333 332 331 328 327 327 326 327 326 325 325 324 321
288 285 285 284 286 285 289 290 293 302 303 302 307 310 312 313 313 313 313 313 314 319 316 319 319 319 319 318 318 319 320 323 324 324 325 326 326 326 326 327 327 326 327 328 329 330 331 331 331 330 330 329 330 330 329 328 326 326 326 325 324 324 325 325 325 326 329 330 329 328 329 328 328 329 331 330 331 330 330 331 333 333 331 331 332 333 332 332 329 327 325 325 324 325 324 324 322
288 286 285 285 284 286 288 291 302 309 309 305 311 310 311 309 310 311 313 313 314 317 318 318 318 317 317 317 317 318 319 319 320 321 323 324 324 324 324 324 324 325 326 327 328 328 328 328 328 328 328 329 329 331 329 326 328 330 327 326 326 326 327 326 326 328 330 330 328 327 328 327 329 330 329 330 329 329 329 328 330 330 330 331 332 332 332 331 328 327 325 326 326 323 322 324 324
286 285 285 283 284 287 284 295 304 308 308 307 310 307 306 308 310 312 312 311 312 314 316 317 318 317 316 317 317 317 317 318 318 319 319 321 323 322 322 322 323 324 324 325 326 325 326 327 326 326 327 327 328 330 330 329 330 328 329 328 328 326 326 330 327 328 326 326 328 326 327 328 328 327 328 329 329 327 327 327 328 328 330 331 330 329 330 330 329 329 328 327 326 323 322 322 325
287 287 284 285 287 287 286 296 306 310 311 312 310 306 305 307 306 308 313 315 313 314 315 315 316 317 317 317 317 318 316 316 316 317 319 319 320 320 320 321 322 322 323 323 324 324 325 325 326 326 326 326 327 328 328 329 329 328 327 327 327 326 326 327 328 328 328 329 329 327 328 328 329 328 328 328 330 329 328 328 327 330 332 331 331 329 328 328 330 329 328 326 325 325 324 323 322
285 286 288 287 286 294 301 304 303 300 302 308 306 295 296 302 304 305 309 310 310 313 311 312 314 315 316 314 315 317 317 318 317 317 318 319 319 319 319 320 321 321 322 323 324 325 324 325 325 325 325 326 326 326 327 328 327 326 325 324 323 323 322 323 325 325 326 327 326 327 328 328 328 327 327 327 328 331 329 329 329 332 333 332 331 329 328 328 329 329 328 327 326 327 325 324 323
284 285 289 289 288 292 301 300 301 295 294 303 306 292 289 302 301 304 307 308 308 311 310 312 313 314 314 314 314 315 315 315 317 317 318 317 318 318 318 318 319 320 321 323 322 323 323 323 323 324 324 324 326 325 325 326 325 325 325 325 325 324 322 322 325 326 326 328 327 327 327 328 329 329 328 327 327 328 328 328 328 330 333 333 332 330 329 328 328 329 329 328 328 328 326 322 323
282 285 289 290 289 288 295 299 298 296 301 304 302 297 295 294 300 307 309 306 308 308 309 311 312 313 313 314 314 314 315 315 316 316 316 317 317 317 317 317 318 320 321 321 321 321 321 321 321 322 323 324 323 324 325 325 322 322 323 323 324 324 324 324 325 325 326 327 325 325 326 327 328 329 328 328 327 328 328 327 326 327 329 331 331 330 329 329 329 329 330 330 330 328 327 325 324
283 288 290 289 290 290 290 296 291 293 297 292 295 300 294 294 302 309 307 303 305 306 308 309 311 312 313 313 314 314 314 316 316 314 314 315 315 316 317 317 318 319 319 319 319 319 319 320 321 321 321 321 322 324 324 323 324 322 322 322 321 323 325 324 325 324 323 324 322 323 324 325 325 326 327 326 326 327 328 327 328 327 327 329 331 329 329 330 330 329 329 329 329 329 328 327 326
288 290 292 291 290 290 289 289 290 290 291 287 293 297 288 290 300 302 305 305 304 305 307 309 310 311 312 312 313 313 314 314 315 314 314 314 315 315 316 316 316 317 318 319 318 318 318 317 317 317 317 319 320 320 321 321 322 323 321 320 320 320 321 322 321 320 321 322 321 321 321 322 322 323 324 324 324 325 325 326 327 328 328 328 330 330 330 330 329 329 329 329 329 328 329 328 326
289 292 291 289 289 286 287 284 287 288 283 287 295 296 292 286 296 300 300 302 307 306 307 309 310 311 312 312 312 312 312 313 313 313 313 313 314 315 315 314 315 315 316 317 317 316 316 316 315 315 316 317 318 317 317 317 318 320 319 318 317 316 316 316 315 316 317 318 318 318 318 318 318 319 320 321 320 321 322 324 325 327 328 329 329 329 329 329 330 330 330 329 329 328 328 328 327
291 287 286 285 285 283 285 281 287 281 279 285 293 295 291 285 289 302 305 305 310 308 306 307 308 309 310 310 311 311 311 311 312 312 312 312 312 313 314 313 314 314 314 315 315 315 315 315 315 314 314 315 315 315 315 314 315 316 317 316 315 314 313 313 312 312 313 314 315 315 315 316 315 316 316 316 316 318 318 319 321 323 323 323 324 326 328 329 329 329 329 329 329 329 329 328 327
288 286 285 281 275 278 275 282 278 277 280 283 292 294 288 286 287 298 305 304 308 310 309 308 308 308 309 310 310 310 311 311 311 311 311 311 311 311 312 312 313 312 312 313 314 314 314 313 313 312 312 313 313 312 311 311 311 312 313 313 313 313 311 310 310 309 310 311 312 312 312 312 312 312 313 313 313 314 315 316 318 317 315 316 316 317 319 323 327 328 328 328 328 327 327 327 326
286 285 281 279 275 275 270 272 274 276 281 286 289 296 287 286 290 296 302 304 307 307 309 310 309 309 309 309 309 309 310 310 310 311 311 311 311 311 311 312 312 312 312 313 313 313 312 312 311 311 310 311 311 310 310 310 310 310 311 311 311 311 310 310 310 309 309 309 309 309 309 310 310 309 310 310 310 311 312 315 316 311 310 311 312 311 313 315 316 321 325 326 326 327 328 327 327
286 286 286 281 278 277 271 275 273 278 278 281 291 289 281 288 289 301 300 305 306 308 309 309 309 308 308 308 308 309 309 309 310 310 310 310 310 310 311 311 312 312 312 312 312 312 311 310 310 309 309 310 310 309 309 309 309 309 309 309 310 310 309 308 308 310 309 308 307 307 307 308 307 307 307 308 309 309 311 312 309 308 307 308 308 307 309 308 310 314 318 321 325 326 326 326 326
284 287 288 281 284 279 281 278 277 277 280 281 285 287 293 293 301 303 305 306 306 308 308 308 306 306 306 306 306 306 307 308 309 309 309 309 310 310 311 310 311 310 310 310 310 310 309 309 309 309 309 309 309 309 308 308 308 309 308 308 308 309 310 307 307 308 307 307 305 305 305 305 305 306 306 308 308 308 309 309 305 305 306 305 305 304 305 304 306 309 310 312 315 318 319 323 326
285 287 283 285 289 286 276 277 281 277 280 280 287 291 295 301 301 303 304 305 305 306 305 305 304 304 305 304 304 304 304 305 305 306 307 308 309 309 310 309 309 309 309 309 308 309 309 310 309 308 308 308 308 308 307 307 307 307 307 307 307 306 306 305 305 306 305 305 305 304 303 304 304 305 305 307 305 306 308 308 304 303 303 303 303 303 303 302 303 304 305 307 308 309 311 314 319
286 283 285 288 291 288 284 277 275 271 276 280 289 288 290 291 286 301 301 300 302 302 303 303 303 303 303 303 303 304 304 306 307 308 309 309 308 308 308 308 308 308 307 307 307 308 308 309 309 307 307 306 306 307 307 306 306 306 306 306 305 305 305 305 305 305 305 304 303 303 303 302 302 304 305 305 305 305 306 308 304 302 302 302 301 301 301 301 301 302 302 303 303 305 307 309 312
290 287 291 289 279 282 281 279 274 273 275 282 287 292 290 289 289 296 296 298 299 301 301 301 301 302 302 303 304 305 306 306 307 307 307 307 306 307 307 306 307 307 307 307 307 307 307 307 308 307 305 306 306 306 306 306 306 306 306 306 305 305 305 305 305 305 304 303 302 302 302 302 302 303 303 303 303 303 304 305 304 301 301 300 300 300 300 299 299 299 300 300 301 302 302 303 306
290 291 289 289 286 280 281 280 280 279 275 280 283 290 285 293 294 298 297 299 299 299 299 300 301 302 302 303 304 304 305 306 306 306 306 306 305 305 305 305 305 305 306 306 307 307 306 306 307 306 306 305 305 305 305 304 305 305 305 305 305 305 305 304 304 304 303 302 302 302 302 301 301 302 301 301 301 301 302 303 303 301 300 299 299 299 298 298 298 297 298 298 299 299 299 300 302
285 286 283 287 285 286 286 284 281 280 278 277 280 283 288 294 300 300 300 300 299 299 299 300 301 302 303 304 304 304 304 304 304 304 304 304 304 303 303 304 304 304 305 305 306 306 306 305 305 305 304 304 304 304 304 304 304 304 304 303 303 304 304 305 305 305 304 303 303 303 302 302 302 301 301 300 300 300 301 302 301 300 298 297 297 297 297 297 296 296 296 297 297 298 297 298 300
287 286 285 285 283 283 281 278 283 285 283 280 282 281 285 288 300 302 301 300 300 301 300 300 301 302 302 303 304 304 303 303 302 303 303 302 302 302 302 302 301 300 301 302 305 306 305 304 304 304 304 304 303 303 303 303 303 302 302 302 302 303 304 304 305 306 306 305 303 302 302 301 300 301 301 300 299 300 301 301 300 298 297 297 296 296 296 296 295 295 295 296 296 296 296 297 298
Wind_Speed
4 5 4 2 2 2 2 5 0 3 2 4 2 2 6 1 2 3 5 4 4 0 2 4 6 5 2 4 12 11 6 2 1 4 3 3 5 9 12 14 13 11 12 11 9 10 10 13 17 17 16 17 16 16 15 15 15 15 16 15 15 14 14 15 14 13 13 14 15 15 15 15 15 15 15 14 14 14 14 14 14 14 13 13 14 13 13 13 13 13 14 14 14 15 15 15 14
4 5 2 2 1 1 0 1 3 1 4 1 8 0 5 4 3 4 5 1 3 1 6 11 13 15 15 16 12 6 11 10 5 3 5 9 11 9 12 14 14 14 12 10 10 9 9 11 17 17 17 17 17 16 16 15 15 16 16 16 15 15 14 14 14 13 13 14 14 15 15 16 16 14 14 14 13 13 12 14 14 14 13 13 13 13 12 12 12 12 13 13 14 15 15 14 13
3 5 2 4 3 4 1 2 1 1 3 6 8 7 3 5 4 6 6 8 6 9 9 11 10 5 4 3 8 5 2 6 7 7 7 11 13 8 12 13 12 12 14 10 10 9 7 10 15 16 17 17 17 16 16 15 15 16 16 15 15 15 14 15 14 13 14 14 14 14 15 15 15 14 13 12 11 11 11 12 14 13 13 13 13 12 12 11 11 11 12 13 14 14 14 13 12
1 3 1 2 0 4 1 3 4 7 4 7 6 5 4 2 4 9 9 6 11 6 1 3 6 4 7 14 9 11 9 3 5 5 6 5 5 11 12 13 11 9 8 8 8 8 6 11 15 16 17 16 16 16 16 16 15 16 16 15 15 15 13 14 14 14 13 14 14 14 15 15 15 14 14 13 13 13 12 12 13 13 13 13 13 13 11 11 10 11 11 12 13 13 12 12 11
2 2 3 4 4 1 2 2 3 4 5 5 6 4 3 2 2 8 6 5 2 2 2 7 8 3 7 9 1 2 5 6 2 4 3 2 9 10 11 11 10 10 10 9 8 8 7 15 14 14 16 16 16 16 16 16 16 15 15 14 14 14 13 13 13 13 13 14 15 14 14 14 14 14 13 12 12 12 12 12 12 12 12 12 11 11 10 10 10 10 11 11 11 12 11 11 10
3 3 2 2 0 2 3 1 1 5 9 3 1 5 4 1 4 4 3 3 4 2 2 1 7 5 5 4 2 4 10 7 5 4 5 8 10 9 10 10 9 10 9 8 8 7 8 15 14 14 15 16 16 16 16 15 15 15 15 14 14 13 12 12 12 13 13 13 14 14 14 14 13 13 12 11 11 12 12 11 11 11 11 11 11 10 9 9 9 10 11 10 10 11 11 11 10
0 3 4 3 2 3 4 3 7 5 9 3 3 6 7 2 2 4 1 4 4 9 3 9 15 14 11 2 7 3 1 7 7 7 6 10 8 9 10 10 11 11 9 8 7 7 10 14 14 14 14 15 16 16 16 15 14 14 14 13 13 13 12 11 12 12 12 12 12 13 13 13 13 12 11 11 10 11 11 10 10 10 10 10 9 8 7 8 9 10 10 10 9 10 10 10 9
1 2 1 2 1 1 1 2 6 5 6 6 3 7 9 4 2 1 4 3 2 1 1 4 1 14 9 4 6 3 7 1 6 8 7 10 10 9 8 10 11 11 10 8 7 7 14 14 14 14 14 14 15 15 16 15 15 14 13 12 12 11 11 11 11 11 10 12 12 12 12 13 13 12 11 10 10 10 11 11 11 11 10 10 9 8 6 6 8 9 10 10 10 10 10 9 9
3 4 1 5 1 2 1 4 6 2 6 6 11 8 10 8 4 4 4 1 3 2 5 6 2 10 4 9 6 2 2 5 6 10 11 10 10 9 7 9 13 10 10 8 7 6 7 11 11 11 13 13 14 14 14 15 14 14 14 12 11 9 10 11 11 11 9 8 10 11 12 12 12 11 10 10 9 9 9 10 10 11 10 9 8 7 6 6 6 7 9 10 11 10 10 9 9
1 2 1 2 3 3 1 6 1 5 4 5 6 10 9 5 2 7 6 6 6 3 1 4 9 17 14 12 8 3 4 6 9 8 6 9 9 9 9 10 10 13 10 8 6 5 5 12 10 9 10 12 12 12 13 12 12 13 13 12 10 9 11 11 10 10 9 9 9 10 11 11 11 11 10 10 9 8 8 9 10 10 10 8 7 7 6 6 6 6 8 10 11 10 10 10 10
0 4 2 3 1 2 6 6 4 6 6 5 7 13 14 10 4 3 6 7 5 5 9 17 15 17 12 8 3 2 8 8 10 8 7 8 9 9 7 7 9 10 10 8 6 5 5 6 12 9 9 10 10 9 9 11 11 10 10 9 10 11 11 10 10 10 10 11 11 11 11 11 10 10 10 10 9 9 8 8 8 9 9 8 7 6 6 6 6 7 8 9 10 10 9 9 9
1 1 1 3 3 6 4 3 4 7 8 5 7 10 4 6 3 4 8 11 6 7 9 1 7 15 12 9 4 3 6 5 6 7 7 6 6 7 8 6 8 8 9 9 8 6 5 5 5 10 10 9 9 9 8 10 10 9 9 10 9 10 10 9 10 10 10 11 11 10 9 9 9 9 10 9 9 9 8 7 7 7 8 7 7 6 5 5 5 6 7 8 8 8 8 9 9
2 1 5 3 3 2 2 1 6 4 5 6 5 4 0 2 6 11 11 12 11 7 2 1 20 4 7 6 4 5 8 4 6 8 7 6 6 6 8 7 8 9 8 8 8 7 6 4 4 5 8 12 9 9 9 9 9 8 9 9 9 10 10 9 9 9 10 10 10 9 9 8 8 9 9 9 8 8 8 7 6 5 6 6 6 5 4 4 5 5 6 7 7 7 8 8 8
3 5 5 3 1 2 1 3 1 2 5 6 2 8 8 1 7 12 13 15 10 2 2 15 9 12 11 7 6 7 7 6 9 8 7 7 7 8 10 8 8 8 8 8 8 7 5 5 5 5 5 5 4 7 9 9 9 8 8 8 8 9 9 9 8 8 9 8 9 9 9 8 8 8 8 8 8 8 8 7 6 5 5 6 5 4 3 3 4 5 5 5 5 6 7 7 6
2 1 1 1 1 1 2 3 3 2 7 2 4 5 4 3 7 14 19 13 4 6 11 4 12 9 8 14 5 9 9 9 10 10 9 8 11 11 10 8 8 8 7 8 7 7 6 5 6 5 5 4 4 3 3 5 9 8 8 8 8 8 8 8 8 8 7 7 7 8 8 8 8 7 7 7 8 7 7 7 6 5 4 5 5 3 2 2 3 3 4 5 5 5 5 5 5
3 3 1 1 2 3 5 2 2 1 8 3 7 6 6 9 5 11 2 6 7 5 4 6 4 2 11 7 15 15 14 12 11 11 10 12 11 9 9 8 7 7 6 6 6 5 5 5 4 5 5 4 3 3 3 3 7 8 7 7 8 8 8 8 7 6 6 6 6 6 7 6 5 3 5 4 6 6 7 5 5 4 4 4 4 4 1 1 2 3 4 4 4 4 5 5 6
1 1 1 0 3 2 4 3 3 2 5 4 5 11 3 3 3 5 7 6 18 4 7 6 2 5 16 3 13 15 13 14 13 12 12 9 7 7 6 6 6 5 4 4 4 5 4 5 4 5 4 5 4 3 3 3 5 7 6 7 8 9 8 8 7 6 5 4 6 8 7 4 3 3 3 1 3 1 4 6 6 5 4 4 4 3 1 1 1 2 3 4 4 4 4 5 9
2 2 2 4 4 2 4 4 4 1 2 6 10 4 3 10 2 6 13 12 13 12 11 7 15 11 10 11 14 13 15 15 13 14 11 10 8 9 8 6 6 5 5 4 4 4 5 4 5 5 5 5 4 4 3 2 2 5 3 3 3 5 7 7 4 3 6 5 8 5 3 2 2 1 0 1 1 0 1 4 4 4 4 4 4 3 1 2 1 2 2 4 5 5 6 3 6
3 1 2 7 4 6 3 3 3 2 5 5 5 7 3 5 12 3 9 5 13 15 7 10 13 13 12 12 12 14 14 12 11 12 14 14 10 12 10 7 6 7 5 4 4 4 4 4 4 5 4 4 5 4 3 2 3 3 3 3 3 5 3 4 4 5 5 4 3 3 2 1 1 1 1 3 2 1 1 3 3 3 4 4 4 3 1 2 2 2 3 4 5 7 3 3 5
4 3 4 6 5 5 4 5 8 4 3 6 8 6 0 7 1 3 9 10 13 17 13 9 15 17 13 12 12 12 12 10 10 13 13 12 11 10 10 9 7 6 5 4 5 3 4 4 4 4 5 4 5 4 3 3 3 3 4 3 4 3 4 3 4 4 4 4 3 2 1 1 0 1 4 6 3 1 1 1 3 3 3 4 4 1 1 2 3 4 4 4 4 2 3 3 4
2 2 4 3 4 2 5 2 5 5 1 4 2 5 1 3 0 7 16 15 3 7 16 22 19 18 15 12 13 12 11 10 10 11 13 13 10 7 7 7 7 6 5 4 4 4 4 4 4 3 3 3 3 3 4 3 3 3 3 3 3 3 3 3 3 4 3 3 3 2 2 1 2 2 2 1 1 0 0 1 1 1 1 0 3 1 0 1 2 3 3 4 2 2 3 3 3
1 5 4 5 2 3 11 5 7 2 5 2 1 2 4 3 4 11 19 17 11 13 10 19 22 23 21 18 14 11 11 11 11 12 13 14 14 11 8 7 6 5 5 5 5 4 3 4 3 3 3 3 3 2 3 4 4 2 3 2 3 2 3 3 3 3 3 3 3 2 2 2 1 1 1 2 1 0 1 1 0 0 0 0 1 1 1 1 2 2 2 3 3 2 2 3 2
3 3 4 6 6 6 5 5 2 1 4 2 1 3 1 8 6 2 5 6 11 10 13 11 18 17 16 14 14 12 12 11 11 12 13 12 12 11 10 8 9 9 6 4 4 3 3 3 3 3 4 3 3 3 2 3 3 3 3 3 3 2 2 3 3 2 2 3 3 2 2 1 1 1 1 2 2 0 1 0 1 0 0 1 2 1 1 1 2 3 3 3 3 3 4 3 4
2 4 2 7 4 8 10 9 9 3 7 2 3 0 8 14 8 1 10 6 16 16 13 13 14 14 14 14 11 11 11 11 10 10 12 14 13 12 10 9 7 5 5 6 4 3 3 4 3 3 4 4 3 3 3 3 2 3 3 3 2 3 2 2 2 2 2 3 2 1 1 1 1 0 0 1 2 1 1 0 1 0 1 2 1 1 1 1 1 3 3 4 4 3 3 3 3
3 4 3 4 4 7 8 7 7 4 4 4 2 6 3 2 5 8 8 13 18 19 15 13 13 13 11 10 10 10 10 10 10 8 7 7 8 9 7 6 6 6 8 7 5 4 3 3 3 4 3 3 3 4 4 3 3 3 2 2 2 3 2 2 2 2 2 1 1 1 2 2 2 1 2 2 1 2 1 1 1 2 1 2 2 1 2 1 1 1 2 3 4 5 5 5 3
5 8 4 4 5 7 6 6 6 7 1 3 14 10 10 13 16 11 5 14 13 15 15 14 13 12 10 9 9 8 9 11 10 10 9 8 8 10 7 6 5 8 7 6 5 3 2 3 4 3 3 4 4 4 4 3 3 3 2 2 2 2 1 1 1 1 1 1 2 1 2 3 3 3 2 2 2 3 2 2 2 2 2 2 2 2 2 2 1 1 2 2 2 3 4 5 3
3 2 3 6 8 5 6 6 6 2 2 1 11 9 10 2 3 3 8 7 13 16 15 12 12 11 10 9 8 7 9 10 8 8 9 8 8 7 7 6 6 6 6 6 4 3 3 4 4 3 2 3 3 3 2 2 2 2 1 1 1 1 1 1 0 0 1 1 2 2 3 2 2 2 2 3 3 3 3 3 3 3 3 3 3 2 2 2 1 1 1 2 2 3 5 5 4
4 5 4 5 6 6 7 8 8 1 2 7 17 9 1 3 6 13 13 8 6 17 15 13 11 10 10 10 8 7 7 7 7 8 12 11 7 7 7 6 6 5 5 5 3 3 4 3 3 2 2 3 2 2 1 2 1 1 1 1 1 0 1 1 1 0 2 2 2 2 2 2 2 2 3 3 3 4 4 3 3 3 4 3 2 2 2 2 1 1 1 2 2 3 4 3 2
3 2 4 6 3 2 4 8 8 2 0 4 12 8 8 5 4 9 6 11 6 12 14 12 12 12 11 10 9 7 8 7 7 7 6 6 6 6 7 4 6 5 3 4 4 4 3 3 3 2 2 2 2 1 1 1 1 1 2 2 1 1 0 1 2 2 2 2 2 2 3 3 3 3 4 4 4 4 4 3 3 3 3 3 2 2 2 1 1 1 2 1 3 2 2 2 1
4 1 2 4 2 3 9 4 6 1 1 7 6 2 6 4 5 8 8 6 9 12 13 13 10 11 10 9 8 8 7 8 7 6 6 6 6 6 6 4 5 4 4 4 4 4 3 2 2 2 1 2 2 1 1 1 2 2 1 1 1 1 1 2 2 2 2 3 3 3 3 3 3 4 4 4 4 3 3 4 3 4 3 3 3 2 2 2 3 2 2 2 3 4 4 3 1
1 3 1 1 1 3 4 2 4 1 4 6 2 4 2 1 5 6 8 10 9 14 13 14 11 10 11 9 9 9 8 6 7 7 7 6 5 5 6 5 6 5 4 4 4 4 3 2 2 1 2 2 0 1 1 1 0 0 0 0 0 0 0 1 1 1 2 2 2 3 2 3 3 4 4 4 4 3 3 3 3 4 2 1 2 3 3 4 4 4 3 4 4 3 3 3 2
2 2 3 2 5 4 5 3 3 5 1 4 9 4 5 3 8 10 13 10 10 12 12 13 11 10 11 9 10 9 9 8 8 7 6 6 5 5 5 5 5 5 4 4 4 4 3 2 2 2 2 1 1 1 0 1 2 1 1 0 1 0 0 1 2 3 3 2 2 3 3 3 4 5 5 4 4 3 3 3 4 2 1 1 1 1 1 3 3 4 3 1 4 5 4 4 2
4 2 3 1 2 4 1 2 5 2 2 6 4 5 3 1 4 6 12 17 10 12 12 12 13 14 11 10 9 10 11 9 8 8 6 5 4 5 5 4 4 4 4 4 4 3 2 2 2 2 2 0 0 1 3 3 3 3 1 1 1 1 0 1 1 1 2 2 3 4 4 4 5 5 5 4 3 3 3 3 3 2 1 1 1 1 1 1 1 3 4 2 1 4 4 5 5
3 2 3 3 4 1 1 4 3 2 3 1 5 8 6 9 12 9 13 16 16 15 15 14 12 11 11 10 10 10 10 10 9 8 9 6 6 7 6 6 5 5 4 3 3 2 1 1 3 4 4 3 2 2 3 2 1 2 2 3 2 2 1 1 1 2 3 2 2 4 3 3 4 4 4 3 3 4 3 3 2 2 2 2 2 1 2 0 1 1 3 2 2 2 4 4 5
5 1 0 1 0 3 4 5 2 3 5 5 3 5 4 12 13 12 13 13 14 15 16 15 13 12 12 10 10 11 10 10 9 9 9 9 9 7 7 7 7 6 5 6 7 4 4 4 4 4 2 2 4 3 1 2 3 3 2 3 3 3 3 3 2 3 3 3 3 3 3 3 3 3 3 3 3 4 3 3 3 2 3 2 2 2 2 1 2 2 3 4 3 4 4 4 5
5 5 3 3 4 1 3 3 1 9 4 5 4 7 9 8 8 3 2 10 12 12 13 12 15 12 12 10 9 8 10 10 8 8 9 8 7 8 8 8 8 8 7 8 7 4 4 4 4 3 3 2 3 3 2 2 2 2 3 4 4 3 3 3 2 3 4 4 3 2 3 3 3 3 2 2 3 3 3 3 3 2 2 2 2 2 3 3 4 3 5 4 5 4 5 4 3
3 2 1 0 0 1 1 0 4 9 8 5 2 9 9 10 8 5 3 3 10 13 12 10 9 8 8 9 9 10 10 10 9 9 9 9 9 8 8 8 8 9 7 9 8 5 5 4 3 4 2 1 1 2 2 1 0 1 0 1 2 2 3 3 3 3 3 3 4 3 3 3 3 3 2 2 2 3 3 3 3 2 2 2 3 4 5 4 4 4 4 3 4 4 3 1 2
3 4 2 4 1 2 0 3 3 3 8 2 1 9 9 9 8 5 8 5 8 10 7 6 10 8 8 10 10 10 9 8 11 9 9 9 8 9 8 8 9 10 7 9 8 7 7 6 6 4 3 3 3 1 1 1 1 2 1 2 1 2 1 2 4 4 3 3 1 1 1 2 3 3 2 1 1 1 2 2 2 3 2 1 5 5 5 4 3 3 3 4 2 3 2 1 2
3 3 1 1 5 2 3 3 3 3 10 4 7 12 8 8 8 4 5 7 5 3 4 5 8 11 8 8 9 9 9 10 10 8 9 8 9 9 9 8 8 7 7 7 5 7 8 5 4 5 5 5 4 3 4 2 3 2 1 1 0 2 0 1 2 3 3 4 3 1 0 2 2 3 2 1 1 1 1 1 3 3 3 4 5 4 2 3 2 3 2 3 4 1 1 2 4
5 3 3 4 3 1 1 4 5 5 3 9 4 8 4 5 6 5 5 5 2 7 8 3 3 9 10 7 7 8 10 11 10 7 8 7 7 8 9 8 7 7 7 7 6 8 7 6 6 6 6 5 6 6 4 4 3 3 3 2 1 0 1 3 2 1 2 3 5 2 1 1 2 2 3 3 3 3 2 2 2 2 4 3 4 3 2 3 2 4 3 2 1 4 2 3 4
0 5 3 3 1 0 4 1 5 10 10 11 10 7 3 3 5 3 6 7 8 7 6 8 6 9 8 8 8 7 8 10 10 10 8 7 7 8 9 9 8 9 8 7 6 7 5 6 6 5 6 7 6 6 6 5 5 5 3 2 3 1 1 4 7 8 7 6 6 7 6 3 3 4 3 3 3 3 3 3 2 3 3 4 3 1 3 4 4 4 3 3 4 5 6 4 2
1 3 7 6 4 5 6 6 7 3 4 4 14 3 2 3 2 2 2 2 6 6 4 7 9 9 8 9 8 8 7 7 10 10 8 6 6 9 9 10 9 8 7 5 5 6 6 6 5 4 5 7 6 5 5 6 6 6 6 7 7 6 7 7 8 8 8 8 7 4 4 4 4 3 3 3 3 3 4 4 3 3 4 3 3 2 2 2 3 4 4 3 5 6 7 6 6
3 6 9 6 6 6 8 6 9 4 7 10 6 7 2 1 4 5 4 5 7 6 8 7 7 7 8 8 8 8 8 9 8 9 8 7 6 10 9 8 7 8 5 5 5 5 6 6 5 4 5 6 4 3 5 6 6 6 6 6 5 5 5 4 3 3 4 4 4 6 6 6 6 6 6 4 4 4 4 4 4 4 4 4 2 1 3 4 4 4 3 4 5 4 3 7 8
3 2 9 9 7 8 9 8 8 6 1 3 2 1 5 5 8 6 6 6 5 4 7 6 6 8 9 7 7 7 8 9 7 8 9 9 7 9 8 6 7 6 5 5 4 3 5 7 6 7 6 5 3 3 5 5 5 4 5 6 5 5 6 5 6 6 5 5 7 7 7 7 8 7 7 7 6 5 4 4 4 3 4 4 2 3 3 4 4 4 5 5 5 5 6 6 7
4 3 9 8 9 10 9 8 5 4 9 5 6 0 2 5 4 4 5 4 6 6 9 8 7 7 9 9 7 9 9 8 6 8 9 8 8 8 7 7 5 6 6 6 5 4 6 8 6 7 7 5 5 5 4 4 4 4 5 5 5 4 4 4 5 6 6 6 6 7 8 7 7 7 8 8 7 7 6 6 5 5 4 5 3 3 2 3 4 4 5 5 5 5 5 5 6
5 4 3 3 3 2 7 7 6 4 5 7 11 6 3 1 3 7 4 5 8 7 8 9 8 9 9 9 8 9 9 7 5 7 9 8 8 7 6 6 7 6 5 6 5 6 7 7 8 8 7 5 5 7 6 6 5 5 7 6 6 5 4 4 5 6 6 7 7 7 6 7 7 7 8 8 9 9 8 8 7 7 7 5 5 4 4 4 3 4 5 5 5 6 6 6 6
3 5 1 2 0 1 2 3 4 4 5 9 12 10 6 3 7 11 13 11 14 9 5 7 8 10 9 10 10 9 9 7 6 7 8 8 6 6 6 7 7 7 7 7 7 6 4 7 9 9 6 5 7 8 8 8 7 7 7 7 7 7 6 6 6 7 6 6 7 7 8 7 7 7 7 8 9 10 10 10 10 10 9 8 8 7 6 5 5 5 5 6 6 7 6 6 6
3 2 4 2 6 3 1 3 2 5 5 3 7 13 6 9 4 8 6 3 12 15 11 10 10 10 9 9 8 8 9 7 6 7 7 6 7 6 6 9 8 8 8 7 6 6 8 8 8 9 8 8 7 7 8 8 8 8 7 8 9 8 8 7 7 7 7 6 6 7 7 7 8 7 8 8 9 10 9 9 9 10 11 11 11 10 8 7 6 5 5 5 5 5 5 6 6
6 3 2 7 2 1 3 1 2 4 5 3 10 10 0 8 2 4 6 4 7 9 9 10 11 10 9 9 9 7 7 8 7 7 5 5 6 6 5 5 5 8 7 7 6 6 6 7 8 9 7 6 7 6 8 8 8 7 7 7 6 6 7 7 6 7 7 8 8 9 9 8 8 9 9 9 10 11 9 9 9 11 10 10 10 11 11 12 9 7 5 5 5 5 5 6 7
8 8 6 5 4 3 3 2 1 3 5 2 2 15 6 1 3 2 5 6 7 10 9 9 10 10 9 8 8 8 7 7 7 6 5 5 6 5 4 4 4 6 8 6 5 5 5 7 7 9 6 5 6 8 7 8 7 7 7 7 6 6 7 6 6 6 7 6 7 7 8 8 8 8 9 9 9 9 8 8 9 10 9 9 10 10 10 11 11 10 9 8 7 6 5 6 6
9 4 9 7 4 3 2 3 4 7 6 3 3 8 5 6 2 3 3 8 9 10 11 9 9 9 9 9 9 8 7 6 6 6 6 6 5 4 3 4 5 6 8 6 4 5 6 7 7 7 7 6 7 7 7 8 7 7 7 7 7 6 6 7 6 6 6 7 7 7 7 8 8 8 8 8 9 10 9 10 12 10 10 11 10 11 10 11 10 10 10 11 9 6 7 7 7
3 5 5 5 10 5 1 5 5 4 3 2 1 1 3 1 2 2 5 12 13 11 12 12 11 9 9 8 9 7 6 6 6 7 7 5 4 3 5 4 6 7 7 5 6 5 7 6 6 7 6 6 7 8 7 6 6 7 7 8 8 8 7 6 7 7 7 7 8 7 7 7 7 6 7 8 9 8 8 10 10 10 11 11 11 11 10 10 11 10 9 10 11 10 11 10 7
4 7 9 7 6 6 3 2 0 2 4 1 1 3 3 3 4 7 11 14 15 13 11 11 11 10 10 8 7 6 5 5 5 5 4 4 6 6 5 6 6 7 6 6 6 6 7 7 8 8 7 7 7 7 6 6 7 8 8 8 8 8 8 8 7 8 8 7 7 7 7 7 7 7 7 7 8 8 8 10 10 10 11 11 11 11 11 10 10 9 9 9 10 11 10 9 9
6 7 9 2 3 4 5 5 1 2 4 2 1 3 5 5 2 6 10 12 14 12 12 11 12 12 10 9 8 7 7 6 6 5 5 7 7 8 7 7 6 6 6 7 7 6 6 6 8 8 7 8 6 6 7 6 7 8 7 8 8 7 7 7 7 7 6 6 7 7 7 8 8 7 7 8 9 10 9 10 10 10 10 11 11 10 11 11 10 8 9 8 8 9 8 8 8
11 9 8 9 5 7 2 4 2 2 1 2 2 6 3 5 4 10 11 14 16 16 13 14 12 14 11 9 8 7 6 6 6 7 8 7 7 7 7 7 6 6 6 6 7 8 7 6 7 8 8 6 5 5 5 6 6 5 6 7 7 7 6 6 5 5 5 6 7 7 8 7 8 8 9 10 9 9 9 9 9 10 10 11 11 11 12 11 11 10 10 9 9 9 9 10 9
1 5 8 1 6 3 3 5 4 7 3 2 3 6 4 6 8 17 15 15 16 17 14 15 11 10 11 10 9 8 7 7 7 8 8 8 7 7 7 7 7 6 7 6 7 8 8 6 7 7 6 6 7 7 6 7 6 6 6 6 6 5 5 4 4 4 5 5 5 6 7 7 7 7 8 9 9 9 9 9 10 11 12 11 11 10 11 11 10 9 10 9 10 11 11 11 10
4 5 5 2 1 2 5 1 2 4 7 5 4 4 4 4 10 14 17 17 17 16 15 13 12 11 11 11 9 8 8 8 9 9 8 9 8 8 7 7 6 6 5 5 6 8 7 6 7 6 8 7 7 6 7 6 6 7 8 7 6 5 5 4 4 3 4 4 5 6 6 5 6 8 7 9 9 9 9 9 11 11 11 11 11 12 11 11 11 11 10 10 11 11 12 11 11
7 8 7 8 7 4 6 6 2 3 7 5 5 5 3 3 2 14 13 12 13 13 14 13 13 12 11 10 9 9 9 9 9 9 9 8 8 8 7 7 5 6 6 6 5 8 8 6 6 6 6 6 6 7 6 6 6 7 8 7 7 6 5 5 4 4 3 3 4 5 4 5 6 6 7 8 9 8 7 9 9 10 10 10 11 11 11 10 11 12 12 9 11 13 12 12 11
Wind_Direction
318 308 305 331 57 78 54 2 27 310 67 231 293 242 253 15 274 354 281 2 325 282 57 62 52 47 146 150 122 104 41 176 222 141 211 132 107 123 131 130 136 138 136 141 144 141 146 147 142 138 133 129 127 126 125 125 123 121 120 117 115 113 113 113 112 109 109 109 109 108 107 106 106 104 104 102 99 99 97 97 94 93 93 95 96 93 90 86 85 85 86 81 77 77 74 71 69
291 306 13 1 64 54 321 109 99 344 36 341 250 139 257 310 359 241 262 229 222 45 99 87 81 87 96 118 140 159 45 47 20 118 96 109 110 124 141 139 145 147 145 143 144 145 149 151 143 136 132 129 130 130 130 128 124 123 121 120 119 118 116 117 116 115 114 114 112 109 108 106 106 102 102 98 98 99 98 97 95 95 96 96 96 95 91 85 82 82 82 81 76 70 68 68 64
311 351 7 22 25 71 93 33 250 153 154 241 259 216 319 317 253 289 241 228 129 132 112 100 91 69 78 130 47 33 76 47 57 66 103 124 124 144 147 142 143 149 145 144 143 146 146 147 140 133 132 132 132 134 133 129 125 125 125 123 121 121 119 119 118 116 116 116 113 111 110 108 105 105 105 99 93 98 101 100 100 99 98 98 97 94 88 83 77 75 79 78 73 70 68 65 61
-0 35 93 65 270 25 62 30 90 137 170 222 295 259 228 245 316 277 279 189 146 149 123 45 49 332 95 65 102 78 89 67 68 98 122 152 163 146 151 146 144 140 140 139 141 139 138 144 137 135 133 134 138 138 134 129 128 128 128 126 125 124 122 121 120 119 117 117 118 115 112 110 109 105 93 87 85 87 90 92 98 101 99 96 96 92 89 82 78 70 65 73 76 75 72 67 64
40 333 76 86 108 355 109 188 148 121 218 193 212 272 247 196 357 342 8 45 157 335 60 128 89 30 75 106 96 74 120 115 62 34 103 82 139 149 146 144 143 144 144 140 135 132 139 143 138 135 138 141 141 138 134 131 130 130 129 127 127 126 124 123 121 119 119 122 121 118 115 112 107 100 95 91 90 92 95 96 97 97 95 93 91 92 92 86 78 74 67 63 69 75 75 75 71
49 36 356 88 135 186 57 71 270 207 229 139 250 258 193 197 39 305 14 348 340 13 345 336 131 166 63 34 37 114 150 145 157 97 139 162 154 146 143 140 140 142 139 132 129 130 140 142 140 142 144 144 139 136 133 132 131 130 129 129 129 127 126 126 123 119 122 124 124 122 118 111 105 102 98 95 93 97 100 103 106 106 104 102 102 100 100 98 89 80 76 71 67 71 75 75 72
352 39 355 28 6 58 168 177 227 220 259 147 231 262 270 133 38 340 23 5 8 40 335 111 115 109 85 85 55 30 332 131 131 168 186 152 141 145 144 143 142 138 132 129 122 132 145 145 149 147 144 141 137 135 134 133 131 131 130 130 130 128 124 127 126 124 123 125 124 124 121 113 108 104 100 97 95 95 97 99 102 100 97 97 94 90 87 89 89 85 81 78 77 75 75 74 68
95 108 305 108 213 58 212 224 252 175 270 196 237 266 276 291 128 3 259 103 287 53 12 105 135 91 63 42 112 105 116 277 126 143 131 138 143 143 135 137 135 135 134 131 137 144 152 148 149 146 142 138 136 134 133 133 135 137 136 133 131 129 126 120 123 124 124 125 124 124 122 118 110 108 103 102 101 98 100 99 99 99 95 92 91 86 77 75 82 86 87 82 76 72 68 64 59
350 84 326 79 120 27 7 237 249 233 273 281 273 250 264 255 211 162 245 279 72 101 149 164 202 74 113 84 79 175 39 103 119 127 137 136 139 133 131 138 141 141 139 134 135 142 136 147 139 133 133 130 130 130 133 137 140 140 139 134 131 127 124 123 118 117 119 125 128 128 125 117 114 111 109 106 105 103 104 107 106 105 101 97 95 93 88 75 72 78 82 80 72 66 62 57 49
15 78 240 142 130 214 329 284 252 242 239 234 253 268 259 251 203 168 197 199 150 165 334 52 108 105 115 103 113 105 138 133 123 111 109 126 133 140 141 142 140 137 134 127 127 117 124 137 121 117 123 127 128 131 134 138 140 141 139 135 129 126 129 119 104 103 110 118 121 128 125 119 114 111 110 108 106 107 106 109 113 110 107 102 98 98 91 74 59 56 65 71 70 62 57 51 45
10 7 158 89 65 216 218 272 271 300 271 282 276 253 256 264 203 177 190 151 135 160 112 102 86 117 112 107 82 60 121 138 129 122 130 142 143 132 123 133 133 131 127 116 103 101 119 122 125 115 119 122 124 122 124 132 137 136 131 124 124 128 120 113 114 115 118 124 125 127 122 119 116 115 110 107 107 107 105 103 108 109 107 105 103 97 90 73 56 46 49 57 63 59 55 53 45
34 84 38 109 195 172 231 216 273 276 279 284 274 268 235 218 126 140 139 133 147 168 142 174 141 124 98 123 129 120 135 121 103 120 130 122 114 120 120 113 113 109 109 110 106 95 101 120 121 129 117 112 110 117 124 128 130 125 124 125 123 119 115 115 118 118 118 120 119 117 119 118 116 110 105 104 106 106 105 103 102 105 106 105 100 96 81 75 63 49 44 50 56 58 54 53 50
122 120 83 95 226 138 221 255 261 277 311 276 235 274 96 182 174 170 159 130 151 157 194 174 137 140 118 125 126 118 140 123 107 104 104 104 108 109 101 99 103 106 106 108 107 105 99 98 109 105 118 119 115 122 129 128 126 124 119 122 120 120 118 117 115 111 111 108 106 115 115 112 111 108 105 103 105 105 105 105 102 102 105 104 99 85 75 70 68 55 46 46 51 54 56 56 50
122 177 123 220 90 170 160 246 266 308 288 258 291 282 295 257 197 151 125 136 182 164 111 132 117 109 97 112 134 153 148 123 108 102 104 107 106 103 104 105 104 107 108 110 109 107 103 100 103 107 113 111 119 126 131 129 133 123 115 117 121 118 115 118 115 111 105 111 112 113 117 120 119 113 111 111 110 106 104 106 105 103 103 101 98 86 61 56 61 56 49 44 44 47 54 56 52
187 170 89 151 277 65 243 179 204 168 272 312 271 316 334 327 144 136 143 127 43 124 114 78 137 93 189 161 172 174 162 136 113 112 108 104 104 107 110 104 105 105 107 108 113 113 113 116 109 111 110 100 96 105 119 139 132 122 120 121 114 113 114 114 112 106 104 106 110 113 120 124 127 121 116 115 113 114 116 110 113 113 110 109 100 94 68 28 41 45 44 38 27 36 45 49 51
174 92 91 204 247 162 265 186 230 207 261 354 315 298 29 38 36 117 311 134 118 111 120 158 245 184 163 194 166 154 148 127 122 118 113 104 102 102 103 102 99 99 104 108 111 109 111 108 107 107 105 106 106 105 117 126 140 134 132 127 120 117 114 114 110 117 119 115 115 103 73 53 54 80 113 115 119 126 125 127 126 127 126 117 121 124 109 26 6 35 31 21 15 12 34 28 41
68 82 282 347 261 152 256 176 138 217 261 298 308 9 49 49 48 34 76 105 126 102 65 360 347 120 151 117 126 128 126 126 124 123 111 108 108 108 98 96 103 101 96 93 102 108 107 112 114 111 112 116 115 113 115 127 148 143 143 138 132 124 124 124 129 126 125 122 88 70 61 63 52 41 18 357 119 120 141 138 135 139 136 132 127 118 165 227 358 30 21 0 351 5 6 33 54
93 180 141 264 197 202 216 201 186 198 293 304 335 359 324 114 84 107 82 64 78 81 77 63 56 57 79 96 109 119 127 129 134 127 124 122 124 122 115 118 121 127 119 107 101 113 120 124 125 120 123 129 129 124 129 138 144 141 119 121 124 134 141 136 131 108 93 58 76 74 72 70 94 87 12 57 18 124 134 137 140 141 143 136 138 146 189 275 313 12 4 346 342 352 16 33 60
160 157 123 228 197 238 167 213 236 330 294 302 308 309 267 164 135 186 104 108 99 82 57 89 87 82 89 100 116 126 133 134 137 131 135 135 135 136 137 135 136 133 126 124 128 141 141 134 134 138 139 144 136 133 135 133 113 114 107 101 113 128 133 110 81 81 73 87 80 85 100 140 150 150 198 183 164 155 214 155 149 155 145 149 145 161 193 268 294 327 338 345 348 352 16 16 67
232 150 241 243 220 251 234 250 271 267 254 305 324 323 18 201 57 158 120 129 114 122 120 103 119 128 135 136 135 139 141 136 136 135 134 135 136 140 141 146 148 149 138 150 152 151 147 149 153 147 154 150 140 143 123 110 119 113 103 95 102 96 87 93 90 96 101 112 115 123 162 161 66 23 2 33 36 107 297 221 187 164 164 153 160 124 224 236 290 321 327 346 355 1 358 3 62
279 141 202 233 226 268 264 196 238 255 165 274 313 334 48 280 11 135 129 110 93 159 159 146 150 147 147 149 147 148 145 135 136 135 134 135 136 132 140 146 151 142 150 145 144 164 166 157 150 160 152 146 138 145 137 126 120 105 98 99 94 91 92 88 98 103 109 124 140 156 201 74 34 25 23 7 67 21 100 30 17 17 22 23 72 47 -0 335 11 338 343 353 359 355 354 351 15
116 208 202 210 281 281 267 250 268 270 250 267 268 133 216 102 98 154 144 140 176 172 191 145 150 153 153 153 158 150 145 139 142 139 140 144 147 144 140 123 120 123 143 145 166 164 169 156 158 156 140 132 121 106 121 150 130 112 113 113 99 67 98 97 99 104 117 141 161 172 141 83 57 33 6 319 3 81 161 127 82 18 21 343 335 270 331 6 294 331 326 327 329 343 342 331 335
249 305 243 222 230 241 289 289 259 71 303 9 289 210 101 137 145 243 350 141 136 147 152 146 143 143 142 142 147 149 141 139 144 143 142 142 145 149 142 138 145 149 152 147 146 154 155 149 149 142 137 127 117 113 113 99 130 142 130 124 128 116 105 108 105 114 140 165 167 165 129 111 72 42 338 339 308 60 218 265 211 132 180 282 278 227 278 310 303 310 326 308 330 347 333 338 342
150 247 286 294 237 244 259 267 275 251 273 271 257 356 124 134 149 328 98 100 123 133 141 139 130 128 135 140 150 143 135 136 144 147 150 154 153 149 143 138 138 123 131 138 145 149 158 146 140 132 124 125 132 133 118 129 141 141 159 165 145 166 130 125 133 163 177 186 178 173 120 126 149 150 284 308 273 301 207 278 312 231 183 223 254 212 236 343 353 331 330 325 330 333 330 325 345
216 272 261 259 280 250 261 262 277 266 247 261 71 72 86 109 127 110 106 123 129 137 140 130 125 126 133 134 128 119 117 120 123 120 120 128 128 127 120 122 123 129 138 148 149 145 150 137 123 115 115 124 140 142 138 144 151 144 157 130 162 193 133 149 167 167 194 225 222 198 180 155 165 186 211 220 266 259 229 201 225 256 191 194 154 195 197 196 205 212 275 308 323 318 319 313 323
197 223 238 277 272 279 279 301 273 269 47 132 70 88 98 107 87 49 35 123 122 120 119 124 126 126 122 113 110 114 118 124 123 125 130 128 131 132 129 132 129 136 140 136 138 139 112 97 104 105 118 137 151 145 148 141 142 141 142 166 175 179 127 131 156 187 225 185 253 226 214 184 199 205 226 230 221 250 240 231 244 256 238 213 177 181 200 163 185 174 204 234 263 273 287 282 280
169 237 235 252 264 293 289 253 271 331 136 180 109 115 128 175 84 99 304 301 125 119 121 127 124 116 110 110 107 107 117 126 124 122 121 130 135 136 127 131 132 122 128 135 132 119 110 97 90 96 124 152 158 150 139 115 112 119 140 173 221 171 135 156 189 122 241 233 236 227 224 215 205 223 224 230 234 236 240 233 240 245 262 249 197 208 205 197 177 180 188 211 228 243 248 245 238
306 274 313 285 274 269 276 293 277 58 353 159 124 128 74 23 116 162 161 269 138 125 125 119 109 110 110 111 105 108 110 113 116 127 133 140 144 145 142 142 127 124 132 133 109 104 96 92 103 114 152 161 136 113 114 97 111 147 163 145 212 225 139 117 222 243 234 245 247 240 246 250 234 232 228 234 224 232 236 234 240 246 257 265 233 215 205 218 201 229 259 258 256 251 267 264 241
267 357 336 291 1 279 260 245 255 109 135 185 124 78 16 357 87 94 76 136 133 114 113 106 111 115 115 113 111 109 118 120 117 115 116 114 117 131 132 117 125 116 84 104 108 102 104 114 128 175 161 121 85 86 73 99 139 187 163 191 218 204 122 150 212 205 240 253 246 237 238 239 240 235 236 233 232 228 241 251 257 251 261 274 270 249 255 265 293 293 300 326 325 323 316 298 320
335 345 170 327 7 328 260 280 279 76 201 173 131 94 287 322 37 93 110 125 154 127 120 120 119 121 121 119 117 117 115 119 117 105 102 103 107 113 111 103 105 106 113 97 105 103 110 120 168 196 120 82 88 90 126 153 188 197 182 137 217 175 171 199 227 210 220 223 226 238 233 232 236 240 241 247 237 242 243 245 255 266 268 278 295 302 289 306 306 315 306 341 312 324 308 298 319
157 255 111 179 97 263 286 222 264 172 166 184 88 130 267 314 102 142 110 137 159 131 127 123 128 129 125 122 122 117 110 111 112 103 96 94 97 98 100 94 99 105 103 113 116 115 111 154 188 108 81 68 138 169 175 210 176 45 40 49 -0 90 180 261 279 270 243 244 245 253 241 234 237 241 241 241 246 237 248 255 252 257 270 274 296 311 312 317 331 318 343 328 317 312 303 297 309
324 31 302 321 150 277 294 302 240 185 36 47 88 83 191 185 171 148 129 136 154 138 126 128 132 129 124 118 118 116 114 105 100 98 98 101 98 96 98 103 109 114 119 123 114 119 139 190 176 89 86 104 317 277 346 32 49 65 49 11 68 104 252 256 285 281 286 271 252 257 241 234 237 235 234 233 246 241 242 248 253 270 249 234 266 303 321 302 323 320 321 321 318 303 315 296 300
346 125 266 188 151 233 22 274 265 167 63 17 72 164 109 127 294 156 148 133 154 140 130 129 128 127 121 120 119 119 118 110 107 100 91 87 74 82 87 95 110 121 127 132 129 115 149 211 148 98 84 67 331 4 37 27 35 53 77 53 51 60 97 332 324 332 324 304 273 262 253 242 237 235 236 232 234 248 245 246 257 255 221 213 240 248 266 292 287 305 309 315 228 287 307 298 303
301 22 198 207 165 202 197 303 338 9 58 344 15 122 210 145 160 219 155 144 151 147 134 131 130 128 126 126 126 127 124 123 118 110 99 83 79 79 84 96 97 107 107 98 97 125 155 41 68 69 44 6 328 25 45 32 37 76 29 34 39 15 345 246 270 299 289 282 269 257 251 247 245 239 235 225 227 242 243 243 242 206 188 183 197 205 241 207 222 225 278 264 229 240 269 281 294
198 191 17 299 99 167 184 149 247 62 14 100 31 81 72 147 162 173 159 144 145 147 135 135 133 132 134 133 131 126 121 114 106 96 89 84 77 74 75 80 75 73 69 82 67 50 43 39 46 49 43 348 324 1 50 68 18 29 41 16 17 1 338 333 353 327 301 291 276 279 279 268 269 260 245 232 227 240 244 241 250 219 177 176 182 210 261 260 231 217 228 263 236 215 221 228 237
168 166 175 166 141 211 179 247 318 113 66 77 134 139 127 140 133 97 150 157 144 145 130 131 134 135 133 125 115 109 104 99 86 82 85 82 79 77 72 73 73 67 68 86 98 85 67 32 17 18 21 353 325 329 1 39 46 6 358 357 352 340 325 318 323 295 301 294 270 279 311 324 330 322 312 278 256 246 238 246 248 236 191 153 170 198 234 236 239 241 241 235 261 254 220 233 216
130 103 102 296 225 282 260 21 132 119 82 19 318 111 130 145 138 152 149 315 137 140 145 131 130 123 115 105 102 103 100 105 93 85 86 88 81 77 75 77 74 62 64 76 80 71 75 75 72 64 50 134 260 288 324 344 49 347 356 235 249 277 290 303 307 297 295 288 307 330 338 339 333 320 294 284 280 297 299 269 249 253 224 188 198 235 229 222 221 223 237 227 235 263 288 99 84
134 102 63 339 65 239 294 67 243 317 104 339 349 109 127 125 130 141 118 7 178 150 149 116 114 108 102 104 106 100 108 107 96 85 85 83 82 80 75 73 69 66 51 60 64 83 75 53 55 65 58 55 45 17 254 207 196 176 189 273 292 276 315 348 317 319 309 302 307 291 339 324 315 310 315 331 323 287 285 283 267 265 224 236 245 225 217 217 220 231 241 283 247 258 295 74 80
105 159 149 48 295 249 300 21 50 43 94 141 136 118 102 60 46 41 99 136 306 347 135 108 122 116 107 108 106 111 111 101 86 84 83 82 83 83 81 74 73 71 70 76 75 71 79 63 41 50 47 45 36 20 35 28 359 32 86 299 68 326 280 241 249 282 308 314 315 321 305 301 306 317 328 315 278 258 248 267 268 261 239 218 231 243 248 254 252 257 255 259 310 347 231 196 175
129 107 120 200 245 112 329 344 0 354 126 152 141 94 86 87 81 78 91 95 101 347 77 69 73 109 110 109 108 111 102 97 97 81 77 71 79 89 84 78 76 71 59 57 64 77 63 54 41 42 44 42 33 17 20 14 43 78 78 82 99 122 278 303 316 305 349 341 354 12 10 338 343 338 337 340 343 335 310 274 248 234 247 210 246 281 313 307 294 276 254 252 243 280 266 276 188
211 161 152 140 167 195 157 178 73 73 56 123 110 82 80 86 103 72 102 126 118 118 95 94 78 83 93 95 85 84 102 106 103 89 76 71 76 78 84 82 72 66 56 51 52 62 70 58 38 39 43 43 33 17 21 24 28 28 26 78 102 70 356 10 21 15 7 3 8 15 355 345 349 352 348 351 353 340 330 311 286 253 235 209 213 226 261 263 265 250 245 245 236 249 271 262 245
302 232 175 177 149 102 96 141 97 17 104 225 135 65 256 27 5 163 189 195 144 134 116 109 111 109 108 102 104 99 93 95 106 101 90 82 92 84 76 74 71 66 56 49 49 65 72 68 52 40 52 52 33 10 21 40 40 39 33 31 23 21 23 17 18 6 358 7 358 334 350 9 11 10 1 354 351 344 342 341 325 298 279 248 221 213 211 240 263 273 262 252 256 236 243 258 267
142 263 169 162 151 137 136 130 87 125 151 216 267 168 211 82 248 223 211 206 152 146 126 121 119 115 109 109 113 113 113 101 94 102 98 85 69 78 71 75 79 74 64 61 56 62 69 69 57 54 56 54 31 21 40 49 47 43 49 54 48 34 25 18 359 359 7 360 357 6 3 7 18 18 15 14 4 348 342 338 328 313 293 288 254 216 252 259 265 265 264 239 248 260 219 247 252
215 241 168 155 156 154 176 153 143 183 328 233 179 13 142 175 235 200 177 192 151 152 135 132 125 126 114 109 115 116 113 99 102 100 98 87 73 77 77 79 81 83 75 64 64 68 79 71 48 43 42 34 8 36 49 48 67 55 65 56 48 37 26 7 359 358 3 4 13 8 6 13 17 25 21 21 16 8 358 347 335 317 308 293 266 239 235 245 252 260 252 254 252 240 244 245 262
209 209 144 158 171 192 180 165 164 155 135 200 235 207 90 207 160 134 147 214 165 215 149 144 138 127 118 121 119 117 103 95 102 107 97 94 91 86 84 73 68 67 64 64 56 59 60 65 61 50 39 19 12 19 38 35 55 63 61 64 58 39 31 16 1 3 358 354 15 9 11 10 15 16 18 18 14 13 13 2 355 353 340 329 301 276 255 244 245 258 272 270 260 251 235 242 247
251 183 144 152 160 153 157 180 148 142 135 213 202 189 135 287 165 166 177 224 182 203 168 147 144 134 129 122 113 105 94 91 86 96 100 97 95 99 96 83 64 68 70 72 59 60 59 62 56 50 31 25 23 35 40 38 32 48 63 53 57 45 31 27 25 16 2 357 9 7 7 10 7 13 14 14 12 9 8 5 4 6 2 346 335 308 295 282 264 259 260 266 268 270 263 260 244
177 153 239 290 79 67 48 109 134 83 212 221 185 190 131 203 212 187 177 216 180 143 160 149 144 138 132 121 123 123 111 106 107 97 93 97 93 89 90 88 78 61 55 55 53 56 70 66 63 53 40 41 43 42 45 50 50 50 58 58 58 51 39 38 34 23 9 11 11 2 2 0 8 14 13 15 14 10 7 9 5 6 4 357 348 345 331 314 300 282 274 269 269 270 272 266 255
148 109 159 231 296 31 45 353 87 160 254 254 175 182 154 206 233 214 219 41 161 163 166 151 148 142 132 123 118 108 103 103 99 89 93 89 78 58 60 76 75 68 60 55 55 52 49 55 62 61 40 41 42 44 49 47 50 48 50 50 53 46 41 41 36 26 10 10 9 11 5 5 7 5 13 14 11 8 9 9 5 10 12 3 358 351 341 328 312 300 291 288 287 280 277 275 268
160 141 102 144 265 109 249 83 236 215 202 262 167 157 288 239 224 297 195 99 154 153 147 148 143 134 125 119 115 106 108 117 109 105 99 91 84 81 75 75 83 88 80 65 57 57 62 63 64 65 47 41 48 47 50 44 46 44 47 51 50 46 45 40 32 30 15 17 11 15 13 12 5 6 7 7 7 6 3 5 10 20 12 8 3 2 354 346 336 315 297 295 290 291 284 281 277
149 167 170 148 191 174 185 266 227 309 275 282 205 172 195 287 297 286 223 156 132 102 109 128 129 129 124 116 110 110 112 117 115 112 112 98 95 103 101 102 91 90 88 73 69 69 67 68 68 73 60 49 52 50 45 49 45 47 51 55 51 47 43 39 32 33 24 27 21 21 18 14 11 10 4 10 359 1 1 4 20 22 18 11 10 3 360 358 353 341 328 314 306 298 292 286 282
186 131 160 180 136 153 185 193 179 204 208 295 310 140 243 140 249 328 237 121 102 112 116 111 112 112 112 116 114 114 119 118 118 120 118 116 117 125 123 90 79 81 83 71 46 47 60 65 69 76 67 47 54 50 48 52 48 46 48 50 48 47 44 37 33 30 29 29 23 26 21 19 18 13 11 3 3 5 3 17 19 18 14 11 10 9 6 359 355 349 348 339 324 301 292 289 284
202 164 98 145 217 133 186 203 159 171 136 100 352 166 14 58 6 63 101 113 111 117 130 131 127 122 123 122 124 124 120 116 118 123 123 126 129 96 65 78 85 74 70 70 60 59 68 73 76 72 68 57 53 55 52 54 53 52 49 51 47 46 43 39 34 31 33 33 30 26 23 19 16 10 8 8 9 8 8 23 17 15 15 12 10 6 6 3 357 355 349 347 343 348 337 328 311
222 123 197 210 144 123 66 50 174 100 69 47 137 114 130 113 69 94 121 122 133 140 137 133 127 128 128 125 126 127 128 126 128 130 128 100 73 81 91 86 89 84 75 71 68 73 86 90 86 74 65 60 58 58 58 57 58 58 54 56 51 48 44 41 38 37 36 33 32 28 24 17 13 13 11 11 11 13 10 27 17 12 13 8 5 3 359 356 356 352 347 345 345 338 331 328 323
130 179 219 168 116 112 147 205 5 48 171 212 133 177 184 155 233 146 126 129 145 146 146 132 135 135 133 138 137 142 144 143 138 117 90 92 98 93 86 79 74 81 83 75 71 80 81 83 83 81 67 66 58 59 56 51 59 62 61 58 54 50 48 44 42 43 39 39 33 30 26 25 18 9 15 16 14 16 17 23 21 13 8 8 3 358 357 354 346 344 341 337 328 326 324 321 323
166 186 174 155 210 236 299 105 182 151 276 251 295 181 216 211 173 146 157 154 157 153 146 141 146 149 139 137 138 144 138 128 118 99 101 100 97 93 88 86 79 74 72 77 83 83 80 75 74 77 77 71 69 63 60 52 54 67 66 63 59 52 48 48 45 44 42 44 39 35 37 32 26 22 23 18 16 17 15 21 23 15 10 6 2 3 356 351 349 340 339 333 332 334 329 324 326
48 108 158 117 115 160 134 206 171 111 189 73 287 157 239 189 179 175 169 164 158 147 151 152 147 142 143 143 147 142 126 116 111 111 112 107 98 96 93 91 83 71 70 69 87 88 82 78 80 81 74 69 61 53 51 53 47 59 61 56 49 48 44 44 40 45 46 46 43 41 37 35 30 28 26 24 22 17 13 26 23 19 13 8 4 1 356 353 347 345 341 335 335 335 330 325 321
139 144 181 198 61 211 104 51 116 155 159 179 158 219 241 214 169 183 171 166 165 156 151 149 143 148 146 145 141 132 123 120 119 120 120 114 111 104 95 87 78 70 63 63 77 90 88 82 79 76 80 69 61 56 58 55 55 54 56 50 39 28 24 24 28 33 54 51 48 45 39 33 30 31 25 27 25 19 18 27 27 22 14 10 3 1 359 353 351 343 342 339 338 339 334 329 325
162 155 183 164 118 122 159 238 28 93 115 177 144 235 258 279 198 181 172 159 151 154 143 139 142 147 147 141 131 129 124 123 125 125 122 118 110 106 99 83 70 68 60 67 81 94 88 83 85 81 71 67 69 59 61 57 56 55 55 50 44 36 28 22 23 17 42 56 58 53 45 39 37 26 29 27 24 20 22 27 26 19 14 8 3 2 357 354 349 346 344 342 339 337 335 331 328